KLM713 EHAM-SMJP

Flight info

Callsign KLM713
Flight time 8h 45m
Altitude 34000
Route IDRID L980 LOGAN DCT SAM N19 ADKIK DCT JOZMA DCT GAPLI/M084F340 DCT OMOKO DCT 45N020W 38N030W/M084F360 33N035W 28N040W 24N045W DCT NEZBT/N0485F380 DCT 16N050W 0927N05300W 0730N05400W DCT TODOL
Aircraft B77W/H-SDE1E2E3FGHIJ2J3J4J5M1RWXY/LB1D1

Departure

Time 2026-05-04 00:45
Airport Amsterdam Airport Schiphol (EHAM)

Arrival

Time 2026-05-04 09:31
Airport Johan Adolf Pengel International Airport (SMJP)
Time Latitude Longitude Altitude Speed Heading
2026-05-04 00:04 52.31329 4.76649 2 ft 0 kts 124°
2026-05-04 00:26 52.31318 4.76675 3 ft 0 kts 124°
2026-05-04 00:29 52.31263 4.76614 2 ft 0 kts 123°
2026-05-04 00:36 52.31262 4.76622 2 ft 3 kts 104°
2026-05-04 00:36 52.31265 4.76636 2 ft 0 kts 70°
2026-05-04 00:37 52.31263 4.76614 2 ft 0 kts 122°
2026-05-04 00:37 52.31255 4.76620 4 ft 3 kts 159°
2026-05-04 00:37 52.31246 4.76580 3 ft 6 kts 305°
2026-05-04 00:38 52.31294 4.76525 3 ft 9 kts 339°
2026-05-04 00:38 52.31353 4.76543 2 ft 9 kts 27°
2026-05-04 00:38 52.31406 4.76596 2 ft 9 kts 32°
2026-05-04 00:38 52.31472 4.76694 2 ft 20 kts 69°
2026-05-04 00:39 52.31483 4.76997 2 ft 28 kts 87°
2026-05-04 00:39 52.31419 4.77284 2 ft 28 kts 127°
2026-05-04 00:39 52.31275 4.77491 2 ft 28 kts 164°
2026-05-04 00:39 52.31079 4.77489 2 ft 28 kts 184°
2026-05-04 00:40 52.30884 4.77474 2 ft 28 kts 183°
2026-05-04 00:40 52.30753 4.77462 2 ft 17 kts 184°
2026-05-04 00:40 52.30669 4.77468 2 ft 7 kts 163°
2026-05-04 00:40 52.30624 4.77500 2 ft 7 kts 154°
2026-05-04 00:41 52.30605 4.77516 2 ft 2 kts 153°
2026-05-04 00:41 52.30594 4.77524 2 ft 0 kts 153°
2026-05-04 00:43 52.30588 4.77530 2 ft 2 kts 153°
2026-05-04 00:43 52.30567 4.77547 2 ft 4 kts 153°
2026-05-04 00:43 52.30533 4.77575 2 ft 6 kts 153°
2026-05-04 00:43 52.30489 4.77612 3 ft 7 kts 153°
2026-05-04 00:44 52.30443 4.77646 4 ft 7 kts 167°
2026-05-04 00:44 52.30407 4.77609 3 ft 3 kts 232°
2026-05-04 00:44 52.30387 4.77562 2 ft 12 kts 236°
2026-05-04 00:44 52.30223 4.77137 -1 ft 80 kts 238°
2026-05-04 00:45 52.29812 4.76068 -3 ft 143 kts 238°
2026-05-04 00:45 52.29195 4.74468 55 ft 182 kts 238°
2026-05-04 00:45 52.28534 4.72718 601 ft 184 kts 237°
2026-05-04 00:45 52.27833 4.70960 1094 ft 186 kts 238°
2026-05-04 00:46 52.27068 4.69258 1647 ft 188 kts 226°
2026-05-04 00:46 52.26074 4.67727 1888 ft 207 kts 225°
2026-05-04 00:46 52.24982 4.66011 2106 ft 229 kts 225°
2026-05-04 00:46 52.24024 4.63873 2356 ft 241 kts 252°
2026-05-04 00:47 52.23554 4.61205 2816 ft 249 kts 253°
2026-05-04 00:47 52.23018 4.58532 3508 ft 253 kts 251°
2026-05-04 00:47 52.22447 4.55809 4268 ft 254 kts 251°
2026-05-04 00:47 52.21872 4.53080 5050 ft 255 kts 251°
2026-05-04 00:48 52.21291 4.50321 5761 ft 257 kts 251°
2026-05-04 00:48 52.20710 4.47560 6495 ft 258 kts 251°
2026-05-04 00:48 52.20322 4.45720 6943 ft 260 kts 251°
2026-05-04 00:48 52.19536 4.41989 7785 ft 265 kts 250°
2026-05-04 00:49 52.18932 4.39131 8445 ft 267 kts 250°
2026-05-04 00:49 52.18325 4.36260 9140 ft 269 kts 250°
2026-05-04 00:49 52.17714 4.33368 9805 ft 271 kts 250°
2026-05-04 00:49 52.17304 4.31438 10198 ft 274 kts 250°
2026-05-04 00:50 52.16659 4.28397 10417 ft 294 kts 250°
2026-05-04 00:50 52.15964 4.25132 10605 ft 315 kts 250°
2026-05-04 00:50 52.14967 4.20450 10851 ft 344 kts 250°
2026-05-04 00:50 52.14428 4.17924 11164 ft 352 kts 250°
2026-05-04 00:51 52.13622 4.14144 11781 ft 361 kts 250°
2026-05-04 00:51 52.12790 4.10253 12630 ft 365 kts 250°
2026-05-04 00:51 52.11952 4.06338 13532 ft 368 kts 250°
2026-05-04 00:51 52.11101 4.02374 14339 ft 372 kts 250°
2026-05-04 00:52 52.10242 3.98379 15122 ft 375 kts 249°
2026-05-04 00:52 52.09386 3.94403 15900 ft 379 kts 249°
2026-05-04 00:52 52.08507 3.90330 16678 ft 383 kts 249°
2026-05-04 00:52 52.07616 3.86215 17428 ft 387 kts 249°
2026-05-04 00:53 52.06713 3.82056 18225 ft 391 kts 249°
2026-05-04 00:53 52.05802 3.77875 18910 ft 394 kts 249°
2026-05-04 00:53 52.04891 3.73703 19587 ft 397 kts 249°
2026-05-04 00:53 52.03963 3.69460 20252 ft 400 kts 249°
2026-05-04 00:54 52.03024 3.65172 20902 ft 403 kts 249°
2026-05-04 00:54 52.02080 3.60865 21545 ft 407 kts 249°
2026-05-04 00:54 52.01124 3.56514 22176 ft 410 kts 249°
2026-05-04 00:54 52.00156 3.52126 22804 ft 414 kts 249°
2026-05-04 00:55 51.98998 3.47850 23385 ft 415 kts 237°
2026-05-04 00:55 51.97301 3.44056 23967 ft 415 kts 231°
2026-05-04 00:55 51.95538 3.40411 24537 ft 417 kts 232°
2026-05-04 00:55 51.93766 3.36653 25005 ft 421 kts 232°
2026-05-04 00:56 51.92012 3.32843 25529 ft 422 kts 233°
2026-05-04 00:56 51.90264 3.28995 26100 ft 423 kts 233°
2026-05-04 00:56 51.88537 3.25189 26638 ft 424 kts 233°
2026-05-04 00:56 51.86878 3.21241 27089 ft 426 kts 239°
2026-05-04 00:57 51.85627 3.16857 27521 ft 431 kts 247°
2026-05-04 00:57 51.84704 3.12216 27993 ft 434 kts 253°
2026-05-04 00:57 51.84156 3.07383 28445 ft 439 kts 261°
2026-05-04 00:57 51.83868 3.02510 28862 ft 441 kts 261°
2026-05-04 00:58 51.83587 2.97555 29252 ft 443 kts 261°
2026-05-04 00:58 51.83292 2.92584 29614 ft 445 kts 261°
2026-05-04 00:58 51.82980 2.87578 29813 ft 450 kts 261°
2026-05-04 00:58 51.82652 2.82512 30069 ft 453 kts 261°
2026-05-04 00:59 51.82319 2.77446 30513 ft 450 kts 261°
2026-05-04 00:59 51.81990 2.72487 30993 ft 447 kts 260°
2026-05-04 00:59 51.81656 2.67507 31401 ft 446 kts 260°
2026-05-04 00:59 51.81317 2.62522 31753 ft 446 kts 260°
2026-05-04 01:00 51.80973 2.57534 32097 ft 445 kts 260°
2026-05-04 01:00 51.80630 2.52580 32505 ft 443 kts 260°
2026-05-04 01:00 51.80285 2.47627 32821 ft 443 kts 260°
2026-05-04 01:00 51.79942 2.42736 33165 ft 443 kts 260°
2026-05-04 01:01 51.79592 2.37770 33292 ft 447 kts 260°
2026-05-04 01:01 51.79239 2.32765 33499 ft 448 kts 260°
2026-05-04 01:01 51.78884 2.27754 33866 ft 447 kts 260°
2026-05-04 01:02 51.78196 2.17752 33939 ft 443 kts 261°
2026-05-04 01:02 51.77631 2.07932 33934 ft 439 kts 261°
2026-05-04 01:03 51.77066 1.98115 33936 ft 439 kts 261°
2026-05-04 01:03 51.76479 1.88332 33946 ft 441 kts 261°
2026-05-04 01:04 51.75874 1.78438 33948 ft 444 kts 261°
2026-05-04 01:04 51.75257 1.68484 33946 ft 446 kts 260°
2026-05-04 01:05 51.74047 1.58745 33942 ft 443 kts 251°
2026-05-04 01:05 51.71885 1.49447 33951 ft 441 kts 245°
2026-05-04 01:06 51.69542 1.40331 33943 ft 443 kts 245°
2026-05-04 01:06 51.67183 1.31122 33942 ft 444 kts 245°
2026-05-04 01:07 51.64846 1.21981 33942 ft 444 kts 245°
2026-05-04 01:07 51.62488 1.12771 33942 ft 444 kts 245°
2026-05-04 01:08 51.60129 1.03591 33944 ft 444 kts 245°
2026-05-04 01:08 51.57761 0.94415 33961 ft 444 kts 245°
2026-05-04 01:09 51.55389 0.85265 33950 ft 446 kts 245°
2026-05-04 01:09 51.52990 0.76050 33945 ft 447 kts 245°
2026-05-04 01:10 51.50592 0.66872 33945 ft 448 kts 245°
2026-05-04 01:10 51.48165 0.57624 33946 ft 448 kts 245°
2026-05-04 01:11 51.45753 0.48468 33942 ft 448 kts 245°
2026-05-04 01:11 51.43308 0.39222 33948 ft 450 kts 245°
2026-05-04 01:12 51.40866 0.30028 33944 ft 451 kts 245°
2026-05-04 01:12 51.38401 0.20782 33966 ft 452 kts 245°
2026-05-04 01:13 51.35921 0.11517 33965 ft 452 kts 244°
2026-05-04 01:13 51.33431 0.02255 33963 ft 452 kts 244°
2026-05-04 01:14 51.30953 -0.06926 33964 ft 452 kts 244°
2026-05-04 01:14 51.28451 -0.16161 33963 ft 452 kts 244°
2026-05-04 01:15 51.25957 -0.25331 33963 ft 451 kts 244°
2026-05-04 01:15 51.23442 -0.34540 33965 ft 452 kts 244°
2026-05-04 01:16 51.20921 -0.43733 33964 ft 451 kts 244°
2026-05-04 01:16 51.18407 -0.52867 33959 ft 451 kts 244°
2026-05-04 01:17 51.15887 -0.61984 33962 ft 451 kts 244°
2026-05-04 01:17 51.13411 -0.70909 33964 ft 451 kts 244°
2026-05-04 01:18 51.10873 -0.80024 33965 ft 451 kts 244°
2026-05-04 01:18 51.08327 -0.89133 33950 ft 452 kts 244°
2026-05-04 01:19 51.05763 -0.98267 33946 ft 453 kts 244°
2026-05-04 01:19 51.03184 -1.07424 33970 ft 455 kts 244°
2026-05-04 01:20 51.00596 -1.16577 33967 ft 457 kts 244°
2026-05-04 01:20 50.97979 -1.25801 33967 ft 458 kts 243°
2026-05-04 01:21 50.95554 -1.35168 33968 ft 460 kts 250°
2026-05-04 01:21 50.94099 -1.45025 33984 ft 463 kts 256°
2026-05-04 01:22 50.92858 -1.55094 33970 ft 464 kts 256°
2026-05-04 01:22 50.91586 -1.65082 33964 ft 465 kts 256°
2026-05-04 01:23 50.90279 -1.75163 33966 ft 466 kts 256°
2026-05-04 01:23 50.88963 -1.85235 33957 ft 466 kts 256°
2026-05-04 01:24 50.87648 -1.95256 33966 ft 468 kts 256°
2026-05-04 01:24 50.86308 -2.05389 33965 ft 469 kts 256°
2026-05-04 01:25 50.84966 -2.15506 33964 ft 470 kts 256°
2026-05-04 01:25 50.83621 -2.25591 33965 ft 470 kts 256°
2026-05-04 01:26 50.82265 -2.35682 33983 ft 470 kts 256°
2026-05-04 01:26 50.80895 -2.45823 33961 ft 471 kts 256°
2026-05-04 01:27 50.79524 -2.55909 33960 ft 472 kts 256°
2026-05-04 01:27 50.78294 -2.66144 33970 ft 473 kts 258°
2026-05-04 01:28 50.77139 -2.76372 33963 ft 473 kts 258°
2026-05-04 01:28 50.75964 -2.86556 33964 ft 474 kts 258°
2026-05-04 01:29 50.74747 -2.96845 33963 ft 475 kts 257°
2026-05-04 01:29 50.73523 -3.07067 33964 ft 476 kts 257°
2026-05-04 01:30 50.72283 -3.17350 33959 ft 476 kts 257°
2026-05-04 01:30 50.71040 -3.27571 33976 ft 476 kts 257°
2026-05-04 01:31 50.69778 -3.37875 33963 ft 477 kts 257°
2026-05-04 01:31 50.68512 -3.48137 33960 ft 477 kts 257°
2026-05-04 01:32 50.67241 -3.58368 33955 ft 477 kts 257°
2026-05-04 01:32 50.65950 -3.68672 33954 ft 478 kts 257°
2026-05-04 01:33 50.64654 -3.78942 33964 ft 478 kts 257°
2026-05-04 01:33 50.63355 -3.89182 33960 ft 479 kts 257°
2026-05-04 01:34 50.62016 -3.99504 33959 ft 480 kts 257°
2026-05-04 01:34 50.60608 -4.09796 33957 ft 481 kts 256°
2026-05-04 01:35 50.59187 -4.20046 33963 ft 481 kts 256°
2026-05-04 01:35 50.57757 -4.30351 33955 ft 482 kts 256°
2026-05-04 01:36 50.56328 -4.40619 33953 ft 482 kts 256°
2026-05-04 01:36 50.54883 -4.50935 33949 ft 482 kts 256°
2026-05-04 01:37 50.53674 -4.59512 33950 ft 481 kts 256°
2026-05-04 01:37 50.52215 -4.69795 33944 ft 481 kts 256°
2026-05-04 01:38 50.50757 -4.80007 33940 ft 482 kts 256°
2026-05-04 01:38 50.49284 -4.90247 33938 ft 482 kts 256°
2026-05-04 01:39 50.47795 -5.00530 33940 ft 482 kts 256°
2026-05-04 01:39 50.46297 -5.10812 33938 ft 483 kts 256°
2026-05-04 01:40 50.44795 -5.21049 33938 ft 483 kts 256°
2026-05-04 01:40 50.43276 -5.31330 33941 ft 483 kts 256°
2026-05-04 01:41 50.41759 -5.41538 33945 ft 483 kts 256°
2026-05-04 01:41 50.40222 -5.51811 33945 ft 483 kts 256°
2026-05-04 01:42 50.38685 -5.62013 33937 ft 484 kts 256°
2026-05-04 01:42 50.37128 -5.72282 33950 ft 484 kts 256°
2026-05-04 01:43 50.35557 -5.82582 33949 ft 485 kts 256°
2026-05-04 01:43 50.33984 -5.92823 33954 ft 486 kts 256°
2026-05-04 01:44 50.32392 -6.03122 33949 ft 487 kts 256°
2026-05-04 01:44 50.30788 -6.13438 33958 ft 488 kts 256°
2026-05-04 01:45 50.29180 -6.23714 33948 ft 489 kts 256°
2026-05-04 01:45 50.26733 -6.39227 33947 ft 489 kts 256°
2026-05-04 01:46 50.25098 -6.49507 33959 ft 490 kts 256°
2026-05-04 01:46 50.23441 -6.59865 33962 ft 491 kts 256°
2026-05-04 01:47 50.21774 -6.70222 33960 ft 490 kts 256°
2026-05-04 01:47 50.20110 -6.80494 33961 ft 490 kts 256°
2026-05-04 01:48 50.18429 -6.90803 33953 ft 489 kts 256°
2026-05-04 01:48 50.16749 -7.01048 33951 ft 489 kts 256°
2026-05-04 01:49 50.15050 -7.11351 33970 ft 488 kts 255°
2026-05-04 01:49 50.13355 -7.21561 33956 ft 488 kts 255°
2026-05-04 01:50 50.11643 -7.31816 33953 ft 488 kts 255°
2026-05-04 01:50 50.09930 -7.42015 33964 ft 489 kts 255°
2026-05-04 01:51 50.08193 -7.52292 33976 ft 490 kts 255°
2026-05-04 01:51 50.06444 -7.62584 33960 ft 491 kts 255°
2026-05-04 01:52 50.04693 -7.72827 33963 ft 492 kts 255°
2026-05-04 01:52 50.02917 -7.83154 33961 ft 493 kts 255°
2026-05-04 01:53 50.01144 -7.93420 33963 ft 494 kts 255°
2026-05-04 01:53 49.99130 -8.03632 33960 ft 494 kts 248°
2026-05-04 01:54 49.96473 -8.13453 33963 ft 495 kts 247°
2026-05-04 01:54 49.93766 -8.23317 33962 ft 495 kts 247°
2026-05-04 01:55 49.91094 -8.33135 33966 ft 496 kts 248°
2026-05-04 01:55 49.88416 -8.43016 33978 ft 496 kts 248°
2026-05-04 01:56 49.85734 -8.52886 33973 ft 496 kts 247°
2026-05-04 01:56 49.83066 -8.62660 33971 ft 494 kts 247°
2026-05-04 01:57 49.80374 -8.72470 33973 ft 494 kts 248°
2026-05-04 01:57 49.77673 -8.82280 33976 ft 495 kts 248°
2026-05-04 01:58 49.74960 -8.92085 33978 ft 496 kts 247°
2026-05-04 01:58 49.72241 -9.01874 33980 ft 497 kts 247°
2026-05-04 01:59 49.69496 -9.11714 33967 ft 498 kts 247°
2026-05-04 01:59 49.66755 -9.21500 33978 ft 499 kts 247°
2026-05-04 02:00 49.63982 -9.31357 33976 ft 500 kts 247°
2026-05-04 02:00 49.61216 -9.41152 33977 ft 500 kts 247°
2026-05-04 02:01 49.58423 -9.51002 33982 ft 500 kts 247°
2026-05-04 02:01 49.55625 -9.60824 33983 ft 499 kts 247°
2026-05-04 02:02 49.52848 -9.70534 33972 ft 497 kts 247°
2026-05-04 02:02 49.50051 -9.80276 33977 ft 496 kts 247°
2026-05-04 02:03 49.47262 -9.89954 33982 ft 494 kts 247°
2026-05-04 02:03 49.44465 -9.99616 33981 ft 494 kts 246°
2026-05-04 02:04 49.41670 -10.09234 33987 ft 495 kts 246°
2026-05-04 02:04 49.38843 -10.18925 33988 ft 496 kts 246°
2026-05-04 02:05 49.36024 -10.28549 33990 ft 497 kts 246°
2026-05-04 02:05 49.33168 -10.38259 33989 ft 498 kts 246°
2026-05-04 02:06 49.30316 -10.47916 33990 ft 500 kts 246°
2026-05-04 02:06 49.27433 -10.57643 33989 ft 501 kts 246°
2026-05-04 02:07 49.24537 -10.67372 34000 ft 501 kts 246°
2026-05-04 02:07 49.21648 -10.77037 33993 ft 501 kts 246°
2026-05-04 02:08 49.18736 -10.86745 33998 ft 502 kts 246°
2026-05-04 02:08 49.15831 -10.96389 34021 ft 502 kts 246°
2026-05-04 02:09 49.12900 -11.06083 34006 ft 502 kts 246°
2026-05-04 02:09 49.09956 -11.15778 34014 ft 502 kts 246°
2026-05-04 02:10 49.07024 -11.25397 34018 ft 504 kts 246°
2026-05-04 02:10 49.04054 -11.35104 34025 ft 504 kts 246°
2026-05-04 02:11 49.01068 -11.44824 34021 ft 505 kts 246°
2026-05-04 02:11 48.98099 -11.54451 34016 ft 505 kts 246°
2026-05-04 02:12 48.95110 -11.64108 34025 ft 505 kts 246°
2026-05-04 02:12 48.92097 -11.73804 34045 ft 506 kts 246°
2026-05-04 02:13 48.89090 -11.83443 34043 ft 507 kts 246°
2026-05-04 02:13 48.86061 -11.93121 34030 ft 507 kts 246°
2026-05-04 02:14 48.82890 -12.02680 34035 ft 508 kts 240°
2026-05-04 02:14 48.79109 -12.11765 34047 ft 507 kts 239°
2026-05-04 02:15 48.75309 -12.20751 34055 ft 508 kts 239°
2026-05-04 02:15 48.71508 -12.29794 34050 ft 508 kts 239°
2026-05-04 02:16 48.67737 -12.38800 34052 ft 508 kts 239°
2026-05-04 02:16 48.63946 -12.47837 34066 ft 508 kts 239°
2026-05-04 02:17 48.60147 -12.56859 34073 ft 508 kts 239°
2026-05-04 02:17 48.56341 -12.65866 34053 ft 508 kts 239°
2026-05-04 02:18 48.52553 -12.74795 34071 ft 507 kts 239°
2026-05-04 02:18 48.48731 -12.83776 34079 ft 507 kts 239°
2026-05-04 02:19 48.44923 -12.92697 34088 ft 507 kts 239°
2026-05-04 02:19 48.41086 -13.01654 34084 ft 507 kts 239°
2026-05-04 02:20 48.37269 -13.10535 34085 ft 507 kts 239°
2026-05-04 02:20 48.33440 -13.19414 34091 ft 507 kts 239°
2026-05-04 02:21 48.29580 -13.28336 34096 ft 508 kts 239°
2026-05-04 02:21 48.25729 -13.37209 34098 ft 508 kts 239°
2026-05-04 02:22 48.21858 -13.46097 34099 ft 508 kts 239°
2026-05-04 02:22 48.18005 -13.54916 34103 ft 508 kts 239°
2026-05-04 02:23 48.14114 -13.63793 34110 ft 508 kts 239°
2026-05-04 02:23 48.10250 -13.72580 34111 ft 508 kts 239°
2026-05-04 02:24 48.06361 -13.81394 34104 ft 507 kts 239°
2026-05-04 02:24 48.03114 -13.88731 34108 ft 507 kts 239°
2026-05-04 02:25 47.99214 -13.97520 34121 ft 507 kts 239°
2026-05-04 02:25 47.95306 -14.06298 34127 ft 507 kts 239°
2026-05-04 02:26 47.91390 -14.15062 34127 ft 507 kts 239°
2026-05-04 02:26 47.87491 -14.23765 34130 ft 507 kts 239°
2026-05-04 02:27 47.83555 -14.32519 34140 ft 507 kts 239°
2026-05-04 02:27 47.79639 -14.41204 34139 ft 507 kts 239°
2026-05-04 02:28 47.75687 -14.49937 34122 ft 507 kts 239°
2026-05-04 02:28 47.71766 -14.58577 34146 ft 507 kts 239°
2026-05-04 02:29 47.67813 -14.67257 34144 ft 506 kts 239°
2026-05-04 02:29 47.63859 -14.75915 34148 ft 506 kts 239°
2026-05-04 02:30 47.59900 -14.84554 34132 ft 505 kts 239°
2026-05-04 02:30 47.55966 -14.93113 34152 ft 505 kts 239°
2026-05-04 02:31 47.52003 -15.01708 34157 ft 505 kts 239°
2026-05-04 02:31 47.48032 -15.10293 34157 ft 505 kts 239°
2026-05-04 02:32 47.44075 -15.18822 34139 ft 504 kts 239°
2026-05-04 02:32 47.40098 -15.27367 34170 ft 504 kts 239°
2026-05-04 02:33 47.36140 -15.35845 34165 ft 503 kts 239°
2026-05-04 02:33 47.32165 -15.44332 34171 ft 503 kts 239°
2026-05-04 02:34 47.28182 -15.52812 34149 ft 502 kts 240°
2026-05-04 02:34 47.24197 -15.61268 34170 ft 501 kts 240°
2026-05-04 02:35 47.20246 -15.69628 34172 ft 500 kts 239°
2026-05-04 02:35 47.16258 -15.78041 34180 ft 500 kts 239°
2026-05-04 02:36 47.12282 -15.86402 34161 ft 499 kts 240°
2026-05-04 02:36 47.08297 -15.94757 34177 ft 498 kts 240°
2026-05-04 02:37 47.04310 -16.03091 34189 ft 498 kts 240°
2026-05-04 02:37 47.00354 -16.11336 34192 ft 497 kts 240°
2026-05-04 02:38 46.96364 -16.19626 34170 ft 496 kts 240°
2026-05-04 02:38 46.92382 -16.27876 34193 ft 495 kts 240°
2026-05-04 02:39 46.88419 -16.36063 34199 ft 495 kts 240°
2026-05-04 02:39 46.84425 -16.44289 34198 ft 495 kts 240°
2026-05-04 02:40 46.80462 -16.52427 34172 ft 494 kts 240°
2026-05-04 02:40 46.76479 -16.60578 34196 ft 492 kts 240°
2026-05-04 02:41 46.72507 -16.68687 34197 ft 490 kts 240°
2026-05-04 02:41 46.68563 -16.76716 34200 ft 489 kts 240°
2026-05-04 02:42 46.64582 -16.84797 34202 ft 488 kts 240°
2026-05-04 02:42 46.60632 -16.92790 34207 ft 488 kts 240°
2026-05-04 02:43 46.56651 -17.00826 34207 ft 489 kts 239°
2026-05-04 02:43 46.52684 -17.08809 34213 ft 490 kts 239°
2026-05-04 02:44 46.48684 -17.16835 34186 ft 490 kts 240°
2026-05-04 02:44 46.44683 -17.24836 34204 ft 488 kts 240°
2026-05-04 02:45 46.40722 -17.32738 34212 ft 486 kts 240°
2026-05-04 02:45 46.36738 -17.40663 34216 ft 485 kts 240°
2026-05-04 02:46 46.32759 -17.48558 34183 ft 484 kts 239°
2026-05-04 02:46 46.28790 -17.56409 34215 ft 483 kts 239°
2026-05-04 02:47 46.24840 -17.64201 34225 ft 483 kts 239°
2026-05-04 02:47 46.20858 -17.72036 34228 ft 483 kts 239°
2026-05-04 02:48 46.16868 -17.79863 34204 ft 483 kts 239°
2026-05-04 02:48 46.12907 -17.87611 34225 ft 482 kts 239°
2026-05-04 02:49 46.08919 -17.95390 34235 ft 482 kts 239°
2026-05-04 02:49 46.04919 -18.03174 34234 ft 482 kts 239°
2026-05-04 02:50 46.00938 -18.10898 34204 ft 483 kts 239°
2026-05-04 02:50 45.96924 -18.18662 34234 ft 482 kts 239°
2026-05-04 02:51 45.92938 -18.26352 34240 ft 481 kts 239°
2026-05-04 02:51 45.88924 -18.34076 34246 ft 481 kts 239°
2026-05-04 02:52 45.84912 -18.41774 34213 ft 481 kts 239°
2026-05-04 02:52 45.80926 -18.49401 34244 ft 480 kts 239°
2026-05-04 02:53 45.76918 -18.57050 34247 ft 479 kts 239°
2026-05-04 02:53 45.72916 -18.64669 34250 ft 478 kts 239°
2026-05-04 02:54 45.68923 -18.72248 34218 ft 478 kts 239°
2026-05-04 02:54 45.64911 -18.79844 34241 ft 477 kts 239°
2026-05-04 02:55 45.58914 -18.91160 34254 ft 477 kts 239°
2026-05-04 02:56 45.54892 -18.98725 34254 ft 478 kts 239°
2026-05-04 02:56 45.50860 -19.06288 34255 ft 478 kts 239°
2026-05-04 02:57 45.46840 -19.13806 34254 ft 478 kts 239°
2026-05-04 02:57 45.42801 -19.21342 34259 ft 479 kts 239°
2026-05-04 02:58 45.38743 -19.28893 34258 ft 479 kts 239°
2026-05-04 02:58 45.34704 -19.36389 34252 ft 479 kts 238°
2026-05-04 02:59 45.30644 -19.43902 34259 ft 478 kts 238°
2026-05-04 02:59 45.26582 -19.51401 34260 ft 478 kts 238°
2026-05-04 03:00 45.22536 -19.58851 34265 ft 478 kts 238°
2026-05-04 03:00 45.18467 -19.66323 34257 ft 478 kts 238°
2026-05-04 03:01 45.14384 -19.73799 34264 ft 478 kts 238°
2026-05-04 03:01 45.10312 -19.81240 34263 ft 478 kts 238°
2026-05-04 03:02 45.06259 -19.88626 34267 ft 478 kts 238°
2026-05-04 03:02 45.02171 -19.96059 34266 ft 478 kts 238°
2026-05-04 03:03 44.98052 -20.03443 34262 ft 479 kts 237°
2026-05-04 03:03 44.93785 -20.10695 34267 ft 479 kts 236°
2026-05-04 03:04 44.89505 -20.17878 34267 ft 480 kts 236°
2026-05-04 03:04 44.85220 -20.25093 34261 ft 479 kts 236°
2026-05-04 03:05 44.80959 -20.32283 34269 ft 479 kts 236°
2026-05-04 03:05 44.76684 -20.39490 34266 ft 479 kts 236°
2026-05-04 03:06 44.72416 -20.46666 34263 ft 479 kts 236°
2026-05-04 03:06 44.68117 -20.53873 34274 ft 479 kts 236°
2026-05-04 03:07 44.63852 -20.61006 34264 ft 479 kts 236°
2026-05-04 03:07 44.59548 -20.68185 34275 ft 479 kts 236°
2026-05-04 03:08 44.55256 -20.75325 34275 ft 480 kts 236°
2026-05-04 03:08 44.50945 -20.82479 34260 ft 479 kts 236°
2026-05-04 03:09 44.46667 -20.89561 34275 ft 478 kts 236°
2026-05-04 03:09 44.42355 -20.96681 34274 ft 478 kts 236°
2026-05-04 03:10 44.38773 -21.02584 34282 ft 478 kts 236°
2026-05-04 03:10 44.34461 -21.09671 34278 ft 478 kts 235°
2026-05-04 03:11 44.30144 -21.16750 34283 ft 478 kts 235°
2026-05-04 03:11 44.25853 -21.23769 34282 ft 478 kts 235°
2026-05-04 03:12 44.21525 -21.30832 34260 ft 478 kts 235°
2026-05-04 03:12 44.17195 -21.37879 34276 ft 477 kts 235°
2026-05-04 03:13 44.12899 -21.44854 34284 ft 477 kts 235°
2026-05-04 03:13 44.08568 -21.51868 34277 ft 477 kts 235°
2026-05-04 03:14 44.04261 -21.58827 34275 ft 477 kts 234°
2026-05-04 03:14 43.99927 -21.65813 34288 ft 476 kts 234°
2026-05-04 03:15 43.95591 -21.72785 34286 ft 477 kts 234°
2026-05-04 03:15 43.91246 -21.79752 34292 ft 477 kts 234°
2026-05-04 03:16 43.86925 -21.86667 34275 ft 476 kts 234°
2026-05-04 03:16 43.82580 -21.93601 34282 ft 476 kts 234°
2026-05-04 03:17 43.78222 -22.00541 34290 ft 476 kts 234°
2026-05-04 03:17 43.73865 -22.07463 34297 ft 476 kts 233°
2026-05-04 03:18 43.69535 -22.14324 34302 ft 476 kts 233°
2026-05-04 03:18 43.65169 -22.21226 34285 ft 476 kts 233°
2026-05-04 03:19 43.60796 -22.28122 34299 ft 476 kts 233°
2026-05-04 03:19 43.56460 -22.34944 34299 ft 476 kts 233°
2026-05-04 03:20 43.52073 -22.41829 34287 ft 475 kts 233°
2026-05-04 03:20 43.47704 -22.48671 34298 ft 475 kts 232°
2026-05-04 03:21 43.43344 -22.55480 34297 ft 475 kts 232°
2026-05-04 03:21 43.38989 -22.62267 34301 ft 475 kts 232°
2026-05-04 03:22 43.34586 -22.69113 34298 ft 476 kts 232°
2026-05-04 03:22 43.30228 -22.75873 34300 ft 476 kts 232°
2026-05-04 03:23 43.25828 -22.82681 34301 ft 476 kts 232°
2026-05-04 03:23 43.21427 -22.89475 34296 ft 476 kts 232°
2026-05-04 03:24 43.17024 -22.96256 34302 ft 475 kts 232°
2026-05-04 03:24 43.12644 -23.02985 34305 ft 475 kts 232°
2026-05-04 03:25 43.08240 -23.09736 34310 ft 475 kts 232°
2026-05-04 03:25 43.03823 -23.16491 34302 ft 475 kts 231°
2026-05-04 03:26 42.99446 -23.23169 34311 ft 474 kts 231°
2026-05-04 03:26 42.95037 -23.29881 34308 ft 474 kts 231°
2026-05-04 03:27 42.90640 -23.36557 34295 ft 474 kts 231°
2026-05-04 03:27 42.86227 -23.43245 34304 ft 473 kts 231°
2026-05-04 03:28 42.81831 -23.49890 34312 ft 473 kts 231°
2026-05-04 03:28 42.77410 -23.56558 34321 ft 473 kts 231°
2026-05-04 03:29 42.73022 -23.63162 34305 ft 473 kts 231°
2026-05-04 03:29 42.68600 -23.69800 34322 ft 472 kts 231°
2026-05-04 03:30 42.64203 -23.76387 34316 ft 472 kts 230°
2026-05-04 03:30 42.59777 -23.83002 34322 ft 472 kts 230°
2026-05-04 03:31 42.55350 -23.89602 34332 ft 472 kts 230°
2026-05-04 03:31 42.50918 -23.96196 34337 ft 472 kts 230°
2026-05-04 03:32 42.46511 -24.02737 34330 ft 472 kts 230°
2026-05-04 03:32 42.42070 -24.09315 34316 ft 472 kts 230°
2026-05-04 03:33 42.37629 -24.15878 34337 ft 472 kts 229°
2026-05-04 03:33 42.33202 -24.22404 34326 ft 472 kts 229°
2026-05-04 03:34 42.28786 -24.28901 34332 ft 472 kts 229°
2026-05-04 03:34 42.24332 -24.35438 34332 ft 472 kts 229°
2026-05-04 03:35 42.19876 -24.41965 34331 ft 471 kts 229°
2026-05-04 03:35 42.15453 -24.48426 34336 ft 471 kts 229°
2026-05-04 03:36 42.11006 -24.54909 34334 ft 471 kts 229°
2026-05-04 03:36 42.06556 -24.61383 34334 ft 470 kts 229°
2026-05-04 03:37 42.02133 -24.67803 34338 ft 470 kts 229°
2026-05-04 03:37 41.97683 -24.74249 34338 ft 470 kts 228°
2026-05-04 03:38 41.93233 -24.80679 34340 ft 470 kts 228°
2026-05-04 03:38 41.88778 -24.87103 34343 ft 469 kts 228°
2026-05-04 03:39 41.84336 -24.93494 34344 ft 469 kts 228°
2026-05-04 03:39 41.79887 -24.99881 34344 ft 469 kts 228°
2026-05-04 03:40 41.75433 -25.06262 34343 ft 469 kts 227°
2026-05-04 03:40 41.70966 -25.12647 34343 ft 469 kts 227°
2026-05-04 03:41 41.66516 -25.18994 34341 ft 469 kts 227°
2026-05-04 03:41 41.62053 -25.25346 34341 ft 469 kts 227°
2026-05-04 03:42 41.57573 -25.31708 34341 ft 469 kts 227°
2026-05-04 03:42 41.53093 -25.38056 34341 ft 469 kts 227°
2026-05-04 03:43 41.48639 -25.44354 34341 ft 469 kts 227°
2026-05-04 03:43 41.44148 -25.50691 34345 ft 468 kts 227°
2026-05-04 03:44 41.39689 -25.56968 34348 ft 468 kts 227°
2026-05-04 03:44 41.35190 -25.63289 34348 ft 468 kts 227°
2026-05-04 03:45 41.30701 -25.69582 34350 ft 468 kts 226°
2026-05-04 03:45 41.26229 -25.75839 34349 ft 468 kts 226°
2026-05-04 03:46 41.21754 -25.82085 34341 ft 468 kts 226°
2026-05-04 03:46 41.17249 -25.88360 34340 ft 469 kts 226°
2026-05-04 03:47 41.12761 -25.94599 34343 ft 469 kts 226°
2026-05-04 03:47 41.08251 -26.00855 34338 ft 469 kts 226°
2026-05-04 03:48 41.03723 -26.07121 34342 ft 469 kts 226°
2026-05-04 03:48 40.99232 -26.13325 34346 ft 469 kts 226°
2026-05-04 03:49 40.94696 -26.19576 34353 ft 469 kts 226°
2026-05-04 03:49 40.90198 -26.25763 34348 ft 469 kts 226°
2026-05-04 03:50 40.85660 -26.31991 34352 ft 469 kts 225°
2026-05-04 03:50 40.81114 -26.38217 34353 ft 470 kts 225°
2026-05-04 03:51 40.76588 -26.44403 34351 ft 470 kts 225°
2026-05-04 03:51 40.72029 -26.50621 34345 ft 469 kts 225°
2026-05-04 03:52 40.67509 -26.56772 34345 ft 469 kts 225°
2026-05-04 03:52 40.62960 -26.62951 34340 ft 469 kts 225°
2026-05-04 03:53 40.58414 -26.69112 34344 ft 469 kts 225°
2026-05-04 03:53 40.53876 -26.75250 34346 ft 470 kts 225°
2026-05-04 03:54 40.49312 -26.81409 34347 ft 470 kts 225°
2026-05-04 03:54 40.44743 -26.87565 34353 ft 470 kts 224°
2026-05-04 03:55 40.40196 -26.93676 34348 ft 469 kts 225°
2026-05-04 03:55 40.35624 -26.99809 34348 ft 469 kts 225°
2026-05-04 03:56 40.31823 -27.04898 34344 ft 469 kts 224°
2026-05-04 03:56 40.27249 -27.11010 34343 ft 469 kts 225°
2026-05-04 03:57 40.22696 -27.17082 34343 ft 469 kts 224°
2026-05-04 03:57 40.18106 -27.23190 34341 ft 469 kts 225°
2026-05-04 03:58 40.11266 -27.32270 34346 ft 468 kts 225°
2026-05-04 03:58 40.06714 -27.38298 34343 ft 467 kts 225°
2026-05-04 03:59 40.02131 -27.44353 34340 ft 468 kts 225°
2026-05-04 03:59 39.97569 -27.50368 34341 ft 469 kts 225°
2026-05-04 04:00 39.92977 -27.56413 34340 ft 469 kts 225°
2026-05-04 04:00 39.88373 -27.62461 34340 ft 469 kts 225°
2026-05-04 04:01 39.83790 -27.68467 34343 ft 469 kts 225°
2026-05-04 04:01 39.79209 -27.74461 34341 ft 469 kts 225°
2026-05-04 04:02 39.74597 -27.80482 34342 ft 469 kts 226°
2026-05-04 04:02 39.69977 -27.86500 34342 ft 469 kts 226°
2026-05-04 04:03 39.65376 -27.92483 34339 ft 469 kts 226°
2026-05-04 04:03 39.60756 -27.98479 34336 ft 470 kts 226°
2026-05-04 04:04 39.56142 -28.04454 34334 ft 470 kts 226°
2026-05-04 04:04 39.51500 -28.10453 34327 ft 470 kts 225°
2026-05-04 04:05 39.46906 -28.16380 34329 ft 469 kts 225°
2026-05-04 04:05 39.42262 -28.22358 34319 ft 469 kts 227°
2026-05-04 04:06 39.37624 -28.28317 34328 ft 470 kts 226°
2026-05-04 04:06 39.33017 -28.34225 34328 ft 470 kts 226°
2026-05-04 04:07 39.28376 -28.40164 34327 ft 470 kts 226°
2026-05-04 04:07 39.23718 -28.46114 34327 ft 470 kts 226°
2026-05-04 04:08 39.19085 -28.52019 34325 ft 470 kts 226°
2026-05-04 04:08 39.14416 -28.57959 34325 ft 469 kts 226°
2026-05-04 04:09 39.09790 -28.63833 34324 ft 469 kts 226°
2026-05-04 04:09 39.05129 -28.69739 34324 ft 469 kts 226°
2026-05-04 04:10 39.00472 -28.75630 34318 ft 469 kts 226°
2026-05-04 04:10 38.95842 -28.81474 34316 ft 469 kts 226°
2026-05-04 04:11 38.91181 -28.87346 34319 ft 469 kts 226°
2026-05-04 04:11 38.86517 -28.93211 34319 ft 469 kts 226°
2026-05-04 04:12 38.81846 -28.99070 34298 ft 468 kts 227°
2026-05-04 04:12 38.77222 -29.04862 34306 ft 466 kts 227°
2026-05-04 04:13 38.72577 -29.10671 34307 ft 465 kts 227°
2026-05-04 04:13 38.67935 -29.16463 34307 ft 465 kts 227°
2026-05-04 04:14 38.63323 -29.22206 34304 ft 464 kts 227°
2026-05-04 04:14 38.58679 -29.27980 34296 ft 464 kts 227°
2026-05-04 04:15 38.54062 -29.33708 34304 ft 465 kts 227°
2026-05-04 04:15 38.49401 -29.39481 34295 ft 466 kts 227°
2026-05-04 04:16 38.44769 -29.45206 34297 ft 467 kts 227°
2026-05-04 04:16 38.40085 -29.50984 34294 ft 467 kts 227°
2026-05-04 04:17 38.35407 -29.56745 34288 ft 468 kts 227°
2026-05-04 04:17 38.30712 -29.62515 34301 ft 469 kts 227°
2026-05-04 04:18 38.26032 -29.68256 34289 ft 469 kts 227°
2026-05-04 04:18 38.21338 -29.74003 34291 ft 469 kts 227°
2026-05-04 04:19 38.16628 -29.79759 34287 ft 469 kts 227°
2026-05-04 04:19 38.11909 -29.85515 34277 ft 469 kts 227°
2026-05-04 04:20 38.07232 -29.91211 34280 ft 468 kts 227°
2026-05-04 04:20 38.02511 -29.96950 34279 ft 468 kts 227°
2026-05-04 04:21 37.97706 -30.02572 34287 ft 471 kts 224°
2026-05-04 04:21 37.95210 -30.05291 34462 ft 473 kts 223°
2026-05-04 04:21 37.92735 -30.07958 34780 ft 472 kts 223°
2026-05-04 04:22 37.90226 -30.10654 35124 ft 470 kts 223°
2026-05-04 04:22 37.87738 -30.13329 35458 ft 469 kts 223°
2026-05-04 04:22 37.85252 -30.16008 35767 ft 468 kts 224°
2026-05-04 04:22 37.82773 -30.18684 36039 ft 468 kts 224°
2026-05-04 04:23 37.80325 -30.21328 36191 ft 469 kts 224°
2026-05-04 04:23 37.77833 -30.24022 36235 ft 471 kts 224°
2026-05-04 04:23 37.72852 -30.29397 36254 ft 468 kts 224°
2026-05-04 04:24 37.67903 -30.34727 36260 ft 466 kts 224°
2026-05-04 04:24 37.63005 -30.39992 36253 ft 464 kts 223°
2026-05-04 04:25 37.58098 -30.45259 36253 ft 464 kts 223°
2026-05-04 04:25 37.53170 -30.50539 36258 ft 464 kts 223°
2026-05-04 04:26 37.48232 -30.55819 36252 ft 465 kts 223°
2026-05-04 04:26 37.43309 -30.61073 36252 ft 466 kts 223°
2026-05-04 04:27 37.38341 -30.66366 36251 ft 467 kts 223°
2026-05-04 04:27 37.33406 -30.71615 36249 ft 468 kts 223°
2026-05-04 04:28 37.28426 -30.76901 36245 ft 468 kts 223°
2026-05-04 04:28 37.23446 -30.82178 36236 ft 468 kts 223°
2026-05-04 04:29 37.18497 -30.87412 36237 ft 467 kts 223°
2026-05-04 04:29 37.13517 -30.92672 36234 ft 467 kts 222°
2026-05-04 04:30 37.08542 -30.97915 36234 ft 466 kts 223°
2026-05-04 04:30 37.03604 -31.03110 36231 ft 465 kts 222°
2026-05-04 04:31 36.98643 -31.08321 36219 ft 464 kts 222°
2026-05-04 04:31 36.93723 -31.13478 36225 ft 462 kts 223°
2026-05-04 04:32 36.88780 -31.18652 36223 ft 462 kts 222°
2026-05-04 04:32 36.83864 -31.23790 36222 ft 463 kts 222°
2026-05-04 04:33 36.78914 -31.28953 36226 ft 464 kts 222°
2026-05-04 04:33 36.73953 -31.34118 36221 ft 464 kts 222°
2026-05-04 04:34 36.68988 -31.39279 36205 ft 464 kts 223°
2026-05-04 04:34 36.64044 -31.44407 36207 ft 464 kts 222°
2026-05-04 04:35 36.59082 -31.49546 36203 ft 464 kts 221°
2026-05-04 04:35 36.54117 -31.54681 36199 ft 463 kts 222°
2026-05-04 04:36 36.49193 -31.59764 36196 ft 463 kts 222°
2026-05-04 04:36 36.44233 -31.64874 36187 ft 463 kts 222°
2026-05-04 04:37 36.34315 -31.75068 36187 ft 464 kts 221°
2026-05-04 04:38 36.29321 -31.80189 36184 ft 466 kts 221°
2026-05-04 04:38 36.24314 -31.85312 36188 ft 466 kts 221°
2026-05-04 04:39 36.19329 -31.90406 36192 ft 466 kts 221°
2026-05-04 04:39 36.14352 -31.95482 36191 ft 465 kts 220°
2026-05-04 04:40 36.09346 -32.00578 36190 ft 465 kts 220°
2026-05-04 04:40 36.04339 -32.05667 36174 ft 464 kts 222°
2026-05-04 04:41 35.99369 -32.10712 36166 ft 465 kts 220°
2026-05-04 04:41 35.94353 -32.15793 36166 ft 466 kts 221°
2026-05-04 04:42 35.89325 -32.20877 36153 ft 467 kts 220°
2026-05-04 04:42 35.84320 -32.25929 36151 ft 467 kts 221°
2026-05-04 04:43 35.79285 -32.31004 36143 ft 467 kts 220°
2026-05-04 04:43 35.74236 -32.36084 36146 ft 468 kts 220°
2026-05-04 04:44 35.69222 -32.41121 36145 ft 468 kts 220°
2026-05-04 04:44 35.65014 -32.45342 36145 ft 468 kts 220°
2026-05-04 04:45 35.59131 -32.51232 36142 ft 468 kts 220°
2026-05-04 04:47 35.42268 -32.68052 36124 ft 469 kts 219°
2026-05-04 04:47 35.37220 -32.73069 36128 ft 470 kts 219°
2026-05-04 04:48 35.32122 -32.78127 36128 ft 470 kts 220°
2026-05-04 04:49 35.19409 -32.90705 36110 ft 470 kts 219°
2026-05-04 04:49 35.14344 -32.95701 36102 ft 470 kts 219°
2026-05-04 04:50 35.09244 -33.00724 36101 ft 471 kts 219°
2026-05-04 04:50 35.04127 -33.05754 36095 ft 472 kts 219°
2026-05-04 04:51 34.99035 -33.10752 36101 ft 472 kts 219°
2026-05-04 04:51 34.93892 -33.15792 36091 ft 472 kts 219°
2026-05-04 04:52 34.88792 -33.20781 36099 ft 473 kts 219°
2026-05-04 04:52 34.83649 -33.25805 36102 ft 473 kts 219°
2026-05-04 04:53 34.78527 -33.30799 36095 ft 473 kts 219°
2026-05-04 04:53 34.73369 -33.35820 36082 ft 474 kts 219°
2026-05-04 04:54 34.68200 -33.40844 36071 ft 474 kts 219°
2026-05-04 04:54 34.63075 -33.45817 36070 ft 474 kts 219°
2026-05-04 04:55 34.57912 -33.50819 36060 ft 474 kts 219°
2026-05-04 04:55 34.52745 -33.55815 36059 ft 473 kts 219°
2026-05-04 04:56 34.47622 -33.60763 36053 ft 473 kts 219°
2026-05-04 04:56 34.42454 -33.65744 36050 ft 474 kts 219°
2026-05-04 04:57 34.37316 -33.70689 36042 ft 474 kts 219°
2026-05-04 04:57 34.32140 -33.75662 36040 ft 474 kts 219°
2026-05-04 04:58 34.26965 -33.80628 36044 ft 474 kts 219°
2026-05-04 04:58 34.21787 -33.85587 36044 ft 474 kts 219°
2026-05-04 04:59 34.16635 -33.90513 36035 ft 475 kts 219°
2026-05-04 04:59 34.11451 -33.95462 36048 ft 475 kts 219°
2026-05-04 05:00 34.06259 -34.00411 36043 ft 475 kts 219°
2026-05-04 05:01 33.98494 -34.07797 36027 ft 475 kts 219°
2026-05-04 05:01 33.93301 -34.12727 36015 ft 475 kts 219°
2026-05-04 05:02 33.88092 -34.17665 36019 ft 476 kts 219°
2026-05-04 05:02 33.82915 -34.22564 36025 ft 477 kts 219°
2026-05-04 05:03 33.77684 -34.27507 36012 ft 477 kts 219°
2026-05-04 05:04 33.67241 -34.37349 36028 ft 478 kts 219°
2026-05-04 05:04 33.62001 -34.42277 36025 ft 478 kts 218°
2026-05-04 05:06 33.40992 -34.61955 36008 ft 481 kts 219°
2026-05-04 05:07 33.35725 -34.66868 36012 ft 482 kts 219°
2026-05-04 05:07 33.30422 -34.71808 36008 ft 482 kts 219°
2026-05-04 05:09 33.06515 -34.93982 36003 ft 485 kts 219°
2026-05-04 05:10 33.01169 -34.98920 36009 ft 485 kts 219°
2026-05-04 05:10 32.96077 -35.04116 36008 ft 484 kts 224°
2026-05-04 05:11 32.91071 -35.09529 36009 ft 485 kts 224°
2026-05-04 05:11 32.86060 -35.14937 36007 ft 486 kts 224°
2026-05-04 05:12 32.81067 -35.20292 36006 ft 487 kts 224°
2026-05-04 05:12 32.76020 -35.25682 35994 ft 487 kts 224°
2026-05-04 05:13 32.70968 -35.31068 35999 ft 488 kts 224°
2026-05-04 05:13 32.65914 -35.36448 36003 ft 490 kts 224°
2026-05-04 05:14 32.60823 -35.41860 36000 ft 492 kts 224°
2026-05-04 05:14 32.55735 -35.47261 36001 ft 493 kts 224°
2026-05-04 05:15 32.50604 -35.52696 35985 ft 494 kts 225°
2026-05-04 05:15 32.45461 -35.58137 35999 ft 496 kts 225°
2026-05-04 05:16 32.40335 -35.63552 36000 ft 497 kts 225°
2026-05-04 05:16 32.35156 -35.69014 35996 ft 498 kts 225°
2026-05-04 05:17 32.29968 -35.74476 36000 ft 499 kts 225°
2026-05-04 05:17 32.24793 -35.79914 35995 ft 500 kts 227°
2026-05-04 05:18 32.19569 -35.85399 36002 ft 502 kts 227°
2026-05-04 05:18 32.14355 -35.90863 35996 ft 504 kts 227°
2026-05-04 05:19 32.09089 -35.96372 36003 ft 506 kts 227°
2026-05-04 05:19 32.03812 -36.01882 35974 ft 506 kts 227°
2026-05-04 05:20 31.98560 -36.07357 36004 ft 507 kts 228°
2026-05-04 05:20 31.93263 -36.12873 36001 ft 508 kts 228°
2026-05-04 05:21 31.87960 -36.18386 35998 ft 508 kts 228°
2026-05-04 05:21 31.82681 -36.23865 35998 ft 508 kts 228°
2026-05-04 05:22 31.77357 -36.29380 35990 ft 508 kts 228°
2026-05-04 05:22 31.72069 -36.34851 35992 ft 508 kts 228°
2026-05-04 05:23 31.66758 -36.40336 35983 ft 508 kts 228°
2026-05-04 05:23 31.61472 -36.45787 36002 ft 507 kts 228°
2026-05-04 05:24 31.56152 -36.51265 35993 ft 507 kts 228°
2026-05-04 05:24 31.50865 -36.56700 35996 ft 507 kts 228°
2026-05-04 05:25 31.45550 -36.62156 36003 ft 507 kts 228°
2026-05-04 05:25 31.40230 -36.67607 35999 ft 507 kts 228°
2026-05-04 05:26 31.34942 -36.73019 36004 ft 507 kts 228°
2026-05-04 05:26 31.29626 -36.78448 35997 ft 505 kts 228°
2026-05-04 05:28 31.08482 -36.99967 35972 ft 504 kts 228°
2026-05-04 05:29 31.03179 -37.05343 36004 ft 504 kts 228°
2026-05-04 05:29 30.97873 -37.10714 36003 ft 504 kts 228°
2026-05-04 05:31 30.77569 -37.31190 36005 ft 505 kts 228°
2026-05-04 05:32 30.72273 -37.36513 36016 ft 505 kts 228°
2026-05-04 05:33 30.64267 -37.44541 36004 ft 506 kts 229°
2026-05-04 05:33 30.58962 -37.49850 35977 ft 506 kts 229°
2026-05-04 05:34 30.53616 -37.55194 36013 ft 507 kts 229°
2026-05-04 05:34 30.48246 -37.60556 36017 ft 509 kts 229°
2026-05-04 05:35 30.42889 -37.65895 36023 ft 511 kts 229°
2026-05-04 05:35 30.37480 -37.71276 36023 ft 512 kts 229°
2026-05-04 05:36 30.32052 -37.76666 36022 ft 513 kts 230°
2026-05-04 05:36 30.26652 -37.82023 36022 ft 513 kts 229°
2026-05-04 05:37 30.21222 -37.87401 36021 ft 513 kts 229°
2026-05-04 05:37 30.15825 -37.92737 36027 ft 513 kts 229°
2026-05-04 05:38 30.07670 -38.00786 36021 ft 512 kts 229°
2026-05-04 05:38 30.02284 -38.06093 36027 ft 512 kts 229°
2026-05-04 05:39 29.94127 -38.14117 36026 ft 512 kts 229°
2026-05-04 05:40 29.86023 -38.22068 36028 ft 511 kts 229°
2026-05-04 05:40 29.80596 -38.27384 36030 ft 511 kts 229°
2026-05-04 05:41 29.75204 -38.32658 36036 ft 511 kts 229°
2026-05-04 05:41 29.69780 -38.37955 36038 ft 511 kts 229°
2026-05-04 05:42 29.64342 -38.43258 35999 ft 511 kts 228°
2026-05-04 05:42 29.58944 -38.48513 36028 ft 510 kts 228°
2026-05-04 05:43 29.53522 -38.53785 36052 ft 510 kts 228°
2026-05-04 05:45 29.31851 -38.74780 36041 ft 508 kts 228°
2026-05-04 05:47 29.10366 -38.95475 36047 ft 502 kts 227°
2026-05-04 05:47 29.05000 -39.00626 36046 ft 502 kts 227°
2026-05-04 05:48 28.99670 -39.05736 36050 ft 502 kts 227°
2026-05-04 05:48 28.94303 -39.10874 36043 ft 503 kts 227°
2026-05-04 05:49 28.88937 -39.16002 36045 ft 502 kts 227°
2026-05-04 05:49 28.83606 -39.21091 36048 ft 502 kts 227°
2026-05-04 05:51 28.62101 -39.41547 36047 ft 503 kts 226°
2026-05-04 05:52 28.56730 -39.46639 36069 ft 504 kts 226°
2026-05-04 05:52 28.51322 -39.51759 36052 ft 505 kts 226°
2026-05-04 05:54 28.29709 -39.72148 36055 ft 506 kts 225°
2026-05-04 05:55 28.24282 -39.77250 36063 ft 506 kts 225°
2026-05-04 05:55 28.18858 -39.82343 36057 ft 505 kts 225°
2026-05-04 05:56 28.13485 -39.87381 36066 ft 504 kts 225°
2026-05-04 05:56 28.08073 -39.92450 36071 ft 503 kts 225°
2026-05-04 05:57 28.02672 -39.97502 36073 ft 503 kts 225°
2026-05-04 05:57 27.97670 -40.02889 36068 ft 493 kts 236°
2026-05-04 05:58 27.93244 -40.08808 36062 ft 491 kts 236°
2026-05-04 05:58 27.88826 -40.14724 36076 ft 491 kts 236°
2026-05-04 05:59 27.84414 -40.20573 36076 ft 492 kts 236°
2026-05-04 05:59 27.79953 -40.26448 36060 ft 492 kts 235°
2026-05-04 06:00 27.75494 -40.32306 36079 ft 491 kts 235°
2026-05-04 06:00 27.71064 -40.38118 36085 ft 491 kts 235°
2026-05-04 06:01 27.66607 -40.43960 36083 ft 491 kts 235°
2026-05-04 06:03 27.48805 -40.67220 36081 ft 490 kts 234°
2026-05-04 06:05 27.28700 -40.93338 36092 ft 491 kts 234°
2026-05-04 06:06 27.24243 -40.99108 36092 ft 491 kts 234°
2026-05-04 06:06 27.19752 -41.04911 36093 ft 491 kts 234°
2026-05-04 06:07 27.15271 -41.10696 36093 ft 491 kts 234°
2026-05-04 06:07 27.10783 -41.16481 36080 ft 491 kts 234°
2026-05-04 06:08 27.06321 -41.22226 36090 ft 490 kts 234°
2026-05-04 06:08 27.01829 -41.28001 36098 ft 490 kts 234°
2026-05-04 06:09 26.97339 -41.33767 36094 ft 490 kts 234°
2026-05-04 06:11 26.79357 -41.56781 36084 ft 491 kts 233°
2026-05-04 06:13 26.61325 -41.79737 36088 ft 492 kts 233°
2026-05-04 06:14 26.45493 -41.99794 36083 ft 492 kts 232°
2026-05-04 06:15 26.40983 -42.05492 36098 ft 492 kts 232°
2026-05-04 06:15 26.36433 -42.11232 36104 ft 492 kts 232°
2026-05-04 06:16 26.31921 -42.16917 36103 ft 492 kts 232°
2026-05-04 06:16 26.27364 -42.22652 36097 ft 492 kts 232°
2026-05-04 06:17 26.22819 -42.28364 36112 ft 492 kts 232°
2026-05-04 06:17 26.18294 -42.34043 36096 ft 492 kts 232°
2026-05-04 06:18 26.14503 -42.38797 36101 ft 493 kts 232°
2026-05-04 06:20 25.96292 -42.61558 36102 ft 493 kts 231°
2026-05-04 06:21 25.84851 -42.75799 36109 ft 493 kts 231°
2026-05-04 06:22 25.80297 -42.81455 36109 ft 493 kts 231°
2026-05-04 06:25 25.48275 -43.21029 36109 ft 493 kts 231°
2026-05-04 06:26 25.43673 -43.26689 36103 ft 493 kts 231°
2026-05-04 06:26 25.39068 -43.32344 36109 ft 494 kts 231°
2026-05-04 06:27 25.27563 -43.46444 36106 ft 494 kts 231°
2026-05-04 06:28 25.22970 -43.52062 36113 ft 495 kts 231°
2026-05-04 06:28 25.18351 -43.57704 36111 ft 495 kts 231°
2026-05-04 06:29 25.13717 -43.63357 36107 ft 495 kts 231°
2026-05-04 06:29 25.09109 -43.68971 36109 ft 496 kts 231°
2026-05-04 06:30 25.04471 -43.74616 36111 ft 496 kts 230°
2026-05-04 06:30 24.99856 -43.80225 36113 ft 496 kts 230°
2026-05-04 06:31 24.95212 -43.85864 36107 ft 496 kts 230°
2026-05-04 06:31 24.90591 -43.91467 36113 ft 496 kts 230°
2026-05-04 06:33 24.72009 -44.13932 36111 ft 497 kts 230°
2026-05-04 06:34 24.67338 -44.19562 36113 ft 497 kts 230°
2026-05-04 06:34 24.62700 -44.25146 36113 ft 497 kts 230°
2026-05-04 06:36 24.44002 -44.47590 36108 ft 499 kts 230°
2026-05-04 06:37 24.39326 -44.53187 36116 ft 499 kts 230°
2026-05-04 06:37 24.34620 -44.58812 36114 ft 499 kts 230°
2026-05-04 06:38 24.29942 -44.64398 36106 ft 500 kts 230°
2026-05-04 06:40 24.11105 -44.86824 36112 ft 499 kts 230°
2026-05-04 06:40 24.06421 -44.92387 36115 ft 498 kts 230°
2026-05-04 06:41 24.01686 -44.97937 36114 ft 499 kts 226°
2026-05-04 06:41 23.96325 -45.02717 36111 ft 502 kts 215°
2026-05-04 06:42 23.90397 -45.06816 36117 ft 502 kts 214°
2026-05-04 06:44 23.66881 -45.23134 36109 ft 501 kts 215°
2026-05-04 06:44 23.61003 -45.27230 36116 ft 501 kts 215°
2026-05-04 06:45 23.55127 -45.31318 36110 ft 501 kts 215°
2026-05-04 06:45 23.49264 -45.35392 36112 ft 501 kts 215°
2026-05-04 06:46 23.43384 -45.39474 36104 ft 501 kts 215°
2026-05-04 06:46 23.37529 -45.43533 36109 ft 501 kts 215°
2026-05-04 06:48 23.13972 -45.59825 36105 ft 501 kts 215°
2026-05-04 06:50 22.90411 -45.76050 36110 ft 502 kts 215°
2026-05-04 06:51 22.84501 -45.80110 36104 ft 503 kts 215°
2026-05-04 06:51 22.78584 -45.84170 36117 ft 504 kts 216°
2026-05-04 06:52 22.72688 -45.88211 36102 ft 505 kts 215°
2026-05-04 06:52 22.66736 -45.92287 36102 ft 505 kts 215°
2026-05-04 06:53 22.60782 -45.96359 36109 ft 505 kts 216°
2026-05-04 06:53 22.54877 -46.00394 36100 ft 505 kts 216°
2026-05-04 06:54 22.48924 -46.04457 36102 ft 505 kts 216°
2026-05-04 06:54 22.43005 -46.08493 36099 ft 505 kts 216°
2026-05-04 06:55 22.37061 -46.12542 36103 ft 504 kts 216°
2026-05-04 06:55 22.31153 -46.16563 36105 ft 503 kts 216°
2026-05-04 06:57 22.07444 -46.32656 36104 ft 503 kts 216°
2026-05-04 06:58 22.01538 -46.36655 36105 ft 503 kts 216°
2026-05-04 06:58 21.95606 -46.40667 36097 ft 502 kts 216°
2026-05-04 06:59 21.89675 -46.44675 36104 ft 502 kts 216°
2026-05-04 06:59 21.83775 -46.48658 36111 ft 502 kts 216°
2026-05-04 07:01 21.60098 -46.64602 36105 ft 502 kts 215°
2026-05-04 07:02 21.54212 -46.68556 36107 ft 502 kts 215°
2026-05-04 07:02 21.48309 -46.72517 36106 ft 501 kts 215°
2026-05-04 07:03 21.42385 -46.76488 36109 ft 500 kts 215°
2026-05-04 07:03 21.36477 -46.80445 36104 ft 499 kts 215°
2026-05-04 07:04 21.30614 -46.84368 36097 ft 498 kts 215°
2026-05-04 07:04 21.24728 -46.88303 36101 ft 497 kts 215°
2026-05-04 07:05 21.18853 -46.92227 36104 ft 496 kts 215°
2026-05-04 07:05 21.13025 -46.96116 36103 ft 495 kts 215°
2026-05-04 07:06 21.04232 -47.01976 36102 ft 495 kts 215°
2026-05-04 07:07 20.98390 -47.05865 36103 ft 496 kts 215°
2026-05-04 07:09 20.75840 -47.20843 36096 ft 498 kts 215°
2026-05-04 07:09 20.69989 -47.24720 36098 ft 498 kts 215°
2026-05-04 07:10 20.64083 -47.28630 36095 ft 497 kts 215°
2026-05-04 07:12 20.40640 -47.44115 36095 ft 495 kts 215°
2026-05-04 07:12 20.34810 -47.47957 36099 ft 494 kts 215°
2026-05-04 07:13 20.28942 -47.51821 36094 ft 494 kts 215°
2026-05-04 07:13 20.23095 -47.55668 36095 ft 494 kts 215°
2026-05-04 07:14 20.08528 -47.65236 36094 ft 492 kts 214°
2026-05-04 07:15 20.02692 -47.69063 36091 ft 492 kts 214°
2026-05-04 07:15 19.96894 -47.72862 36095 ft 491 kts 214°
2026-05-04 07:16 19.91065 -47.76679 36094 ft 491 kts 214°
2026-05-04 07:16 19.85275 -47.80466 36090 ft 490 kts 214°
2026-05-04 07:17 19.79449 -47.84273 36092 ft 490 kts 214°
2026-05-04 07:17 19.73631 -47.88072 36094 ft 490 kts 214°
2026-05-04 07:18 19.67859 -47.91838 36093 ft 490 kts 214°
2026-05-04 07:18 19.62043 -47.95629 36086 ft 490 kts 214°
2026-05-04 07:19 19.56232 -47.99413 36083 ft 489 kts 214°
2026-05-04 07:19 19.50422 -48.03194 36080 ft 489 kts 214°
2026-05-04 07:20 19.44644 -48.06951 36080 ft 489 kts 214°
2026-05-04 07:20 19.38830 -48.10728 36091 ft 489 kts 214°
2026-05-04 07:22 19.15694 -48.25726 36083 ft 487 kts 214°
2026-05-04 07:23 19.09888 -48.29482 36085 ft 487 kts 214°
2026-05-04 07:23 19.04105 -48.33219 36085 ft 487 kts 214°
2026-05-04 07:24 18.98346 -48.36939 36084 ft 487 kts 214°
2026-05-04 07:24 18.92564 -48.40670 36082 ft 487 kts 214°
2026-05-04 07:26 18.69411 -48.55581 36079 ft 487 kts 214°
2026-05-04 07:27 18.63657 -48.59279 36076 ft 487 kts 214°
2026-05-04 07:27 18.57843 -48.63012 36076 ft 487 kts 214°
2026-05-04 07:28 18.52075 -48.66713 36070 ft 487 kts 214°
2026-05-04 07:28 18.46273 -48.70433 36076 ft 487 kts 214°
2026-05-04 07:29 18.40468 -48.74152 36077 ft 487 kts 213°
2026-05-04 07:29 18.34684 -48.77854 36076 ft 487 kts 213°
2026-05-04 07:30 18.28916 -48.81544 36070 ft 488 kts 213°
2026-05-04 07:30 18.23110 -48.85255 36076 ft 488 kts 213°
2026-05-04 07:31 18.17293 -48.88970 36078 ft 488 kts 213°
2026-05-04 07:33 17.93768 -49.03239 36284 ft 493 kts 208°
2026-05-04 07:33 17.90668 -49.04779 36670 ft 491 kts 207°
2026-05-04 07:33 17.87578 -49.06312 37080 ft 488 kts 208°
2026-05-04 07:34 17.84515 -49.07837 37530 ft 484 kts 208°
2026-05-04 07:34 17.81519 -49.09337 37912 ft 482 kts 208°
2026-05-04 07:34 17.78482 -49.10864 38038 ft 485 kts 208°
2026-05-04 07:34 17.75433 -49.12403 38063 ft 486 kts 208°
2026-05-04 07:35 17.69333 -49.15482 38063 ft 483 kts 208°
2026-05-04 07:35 17.63315 -49.18516 38078 ft 480 kts 208°
2026-05-04 07:36 17.57296 -49.21548 38075 ft 479 kts 208°
2026-05-04 07:38 17.33267 -49.33628 38072 ft 481 kts 208°
2026-05-04 07:38 17.27207 -49.36669 38068 ft 483 kts 208°
2026-05-04 07:39 17.21166 -49.39698 38068 ft 484 kts 208°
2026-05-04 07:39 17.15079 -49.42748 38067 ft 484 kts 208°
2026-05-04 07:40 17.09024 -49.45778 38065 ft 484 kts 208°
2026-05-04 07:40 17.02940 -49.48822 38059 ft 484 kts 208°
2026-05-04 07:41 16.96858 -49.51862 38059 ft 484 kts 208°
2026-05-04 07:41 16.90787 -49.54896 38047 ft 483 kts 208°
2026-05-04 07:42 16.84721 -49.57924 38056 ft 482 kts 208°
2026-05-04 07:42 16.78699 -49.60928 38060 ft 482 kts 208°
2026-05-04 07:43 16.72666 -49.63935 38060 ft 481 kts 208°
2026-05-04 07:43 16.66618 -49.66948 38059 ft 481 kts 208°
2026-05-04 07:44 16.60570 -49.69959 38054 ft 481 kts 208°
2026-05-04 07:44 16.54512 -49.72973 38057 ft 481 kts 208°
2026-05-04 07:45 16.48468 -49.75977 38056 ft 481 kts 208°
2026-05-04 07:45 16.42454 -49.78965 38051 ft 481 kts 208°
2026-05-04 07:46 16.36396 -49.81972 38059 ft 481 kts 208°
2026-05-04 07:46 16.30372 -49.84960 38053 ft 481 kts 208°
2026-05-04 07:47 16.24315 -49.87964 38059 ft 481 kts 208°
2026-05-04 07:49 16.00146 -49.99926 38049 ft 481 kts 208°
2026-05-04 07:49 15.94050 -50.02852 38050 ft 481 kts 207°
2026-05-04 07:50 15.87933 -50.05715 38048 ft 481 kts 206°
2026-05-04 07:50 15.81857 -50.08561 38051 ft 481 kts 207°
2026-05-04 07:51 15.75746 -50.11434 38044 ft 481 kts 207°
2026-05-04 07:51 15.69639 -50.14311 38049 ft 481 kts 207°
2026-05-04 07:52 15.63573 -50.17167 38049 ft 481 kts 207°
2026-05-04 07:52 15.57468 -50.20038 38045 ft 481 kts 207°
2026-05-04 07:54 15.33122 -50.31471 38047 ft 480 kts 207°
2026-05-04 07:55 15.27061 -50.34312 38045 ft 480 kts 207°
2026-05-04 07:55 15.21999 -50.36684 38043 ft 480 kts 207°
2026-05-04 07:56 15.15903 -50.39538 38044 ft 479 kts 207°
2026-05-04 07:56 15.09817 -50.42387 38043 ft 479 kts 207°
2026-05-04 07:57 15.03772 -50.45213 38043 ft 479 kts 207°
2026-05-04 07:57 14.97693 -50.48055 38044 ft 479 kts 207°
2026-05-04 07:58 14.91611 -50.50895 38043 ft 478 kts 207°
2026-05-04 07:58 14.85579 -50.53711 38037 ft 478 kts 207°
2026-05-04 07:59 14.79501 -50.56547 38042 ft 478 kts 207°
2026-05-04 07:59 14.73428 -50.59378 38041 ft 478 kts 207°
2026-05-04 08:00 14.67409 -50.62182 38042 ft 477 kts 207°
2026-05-04 08:02 14.43216 -50.73438 38032 ft 476 kts 207°
2026-05-04 08:02 14.37202 -50.76232 38035 ft 476 kts 207°
2026-05-04 08:03 14.31149 -50.79042 38035 ft 476 kts 207°
2026-05-04 08:03 14.25091 -50.81853 38036 ft 476 kts 207°
2026-05-04 08:04 14.19088 -50.84637 38035 ft 476 kts 207°
2026-05-04 08:04 14.13040 -50.87439 38035 ft 476 kts 207°
2026-05-04 08:05 14.06979 -50.90247 38032 ft 476 kts 207°
2026-05-04 08:05 14.00927 -50.93048 38034 ft 476 kts 207°
2026-05-04 08:06 13.94905 -50.95834 38022 ft 477 kts 207°
2026-05-04 08:06 13.88852 -50.98632 38044 ft 476 kts 207°
2026-05-04 08:08 13.64636 -51.09813 38043 ft 476 kts 207°
2026-05-04 08:11 13.37464 -51.22328 38037 ft 475 kts 208°
2026-05-04 08:11 13.28424 -51.26486 38033 ft 475 kts 208°
2026-05-04 08:12 13.22388 -51.29259 38028 ft 475 kts 208°
2026-05-04 08:12 13.16367 -51.32024 38022 ft 475 kts 208°
2026-05-04 08:13 13.10326 -51.34797 38018 ft 475 kts 208°
2026-05-04 08:13 13.04280 -51.37571 38026 ft 475 kts 208°
2026-05-04 08:14 12.98262 -51.40331 38024 ft 475 kts 208°
2026-05-04 08:16 12.74094 -51.51398 38027 ft 476 kts 208°
2026-05-04 08:16 12.68041 -51.54166 38023 ft 476 kts 208°
2026-05-04 08:17 12.62037 -51.56910 38015 ft 475 kts 208°
2026-05-04 08:17 12.55983 -51.59675 38019 ft 475 kts 208°
2026-05-04 08:19 12.31844 -51.70689 38021 ft 475 kts 208°
2026-05-04 08:20 12.25801 -51.73442 38021 ft 474 kts 208°
2026-05-04 08:20 12.19811 -51.76171 38020 ft 474 kts 208°
2026-05-04 08:21 12.13774 -51.78919 38018 ft 474 kts 208°
2026-05-04 08:21 12.07780 -51.81646 38015 ft 473 kts 208°
2026-05-04 08:22 12.01767 -51.84380 38022 ft 472 kts 208°
2026-05-04 08:24 11.77795 -51.95269 38013 ft 470 kts 208°
2026-05-04 08:24 11.71816 -51.97981 38013 ft 469 kts 208°
2026-05-04 08:25 11.65839 -52.00691 38013 ft 468 kts 208°
2026-05-04 08:25 11.59886 -52.03390 38013 ft 468 kts 208°
2026-05-04 08:27 11.36077 -52.14169 38015 ft 470 kts 208°
2026-05-04 08:28 11.30091 -52.16876 38003 ft 471 kts 208°
2026-05-04 08:28 11.24137 -52.19567 38014 ft 470 kts 208°
2026-05-04 08:29 11.18140 -52.22276 38009 ft 470 kts 208°
2026-05-04 08:31 10.94256 -52.33054 38011 ft 468 kts 208°
2026-05-04 08:33 10.70482 -52.43763 38006 ft 467 kts 208°
2026-05-04 08:35 10.46753 -52.54435 38001 ft 466 kts 208°
2026-05-04 08:35 10.40848 -52.57087 38003 ft 466 kts 208°
2026-05-04 08:37 10.20088 -52.66405 37993 ft 466 kts 208°
2026-05-04 08:38 10.14163 -52.69061 38001 ft 465 kts 208°
2026-05-04 08:38 10.08276 -52.71699 38003 ft 464 kts 208°
2026-05-04 08:40 9.84674 -52.82268 38000 ft 463 kts 208°
2026-05-04 08:41 9.78759 -52.84915 37995 ft 463 kts 208°
2026-05-04 08:41 9.73853 -52.87109 37998 ft 463 kts 208°
2026-05-04 08:42 9.67934 -52.89755 38000 ft 464 kts 208°
2026-05-04 08:42 9.62063 -52.92378 37995 ft 463 kts 208°
2026-05-04 08:43 9.56150 -52.95020 37994 ft 463 kts 208°
2026-05-04 08:43 9.50278 -52.97643 37995 ft 463 kts 208°
2026-05-04 08:44 9.44388 -53.00296 37990 ft 461 kts 211°
2026-05-04 08:46 9.21629 -53.12043 37992 ft 458 kts 212°
2026-05-04 08:46 9.15947 -53.14969 37988 ft 457 kts 212°
2026-05-04 08:47 9.10274 -53.17889 37992 ft 457 kts 212°
2026-05-04 08:47 9.04631 -53.20793 37980 ft 457 kts 212°
2026-05-04 08:48 8.98981 -53.23699 37988 ft 457 kts 212°
2026-05-04 08:48 8.93296 -53.26623 37985 ft 458 kts 211°
2026-05-04 08:49 8.87607 -53.29548 37987 ft 458 kts 211°
2026-05-04 08:50 8.67676 -53.39786 37987 ft 460 kts 211°
2026-05-04 08:51 8.62010 -53.42695 37984 ft 460 kts 211°
2026-05-04 08:51 8.56288 -53.45630 37983 ft 460 kts 211°
2026-05-04 08:52 8.50581 -53.48558 37967 ft 460 kts 211°
2026-05-04 08:52 8.44889 -53.51477 37974 ft 461 kts 211°
2026-05-04 08:54 8.21941 -53.63235 37970 ft 464 kts 211°
2026-05-04 08:55 8.16175 -53.66186 37994 ft 464 kts 211°
2026-05-04 08:55 8.10439 -53.69121 37991 ft 464 kts 211°
2026-05-04 09:01 7.50966 -53.99506 37981 ft 466 kts 210°
2026-05-04 09:01 7.45239 -54.02572 37975 ft 465 kts 212°
2026-05-04 09:02 7.39605 -54.05792 37969 ft 465 kts 212°
2026-05-04 09:02 7.33998 -54.08999 37961 ft 465 kts 212°
2026-05-04 09:03 7.28329 -54.12208 37977 ft 465 kts 212°
2026-05-04 09:03 7.22707 -54.15374 37976 ft 465 kts 212°
2026-05-04 09:04 7.17046 -54.18558 37973 ft 465 kts 212°
2026-05-04 09:04 7.11355 -54.21761 37099 ft 476 kts 212°
2026-05-04 09:04 7.08500 -54.23368 36422 ft 474 kts 212°
2026-05-04 09:05 7.05617 -54.24989 35696 ft 474 kts 212°
2026-05-04 09:05 7.02730 -54.26612 34829 ft 477 kts 212°
2026-05-04 09:05 6.99819 -54.28250 33941 ft 481 kts 212°
2026-05-04 09:05 6.96875 -54.29906 32906 ft 485 kts 212°
2026-05-04 09:06 6.93942 -54.31555 31990 ft 487 kts 211°
2026-05-04 09:07 6.73763 -54.42889 27371 ft 463 kts 210°
2026-05-04 09:08 6.70952 -54.44469 26761 ft 460 kts 210°
2026-05-04 09:08 6.68164 -54.46035 26140 ft 457 kts 210°
2026-05-04 09:08 6.65397 -54.47588 25540 ft 455 kts 210°
2026-05-04 09:08 6.62660 -54.49126 24934 ft 453 kts 209°
2026-05-04 09:09 6.59905 -54.50673 24346 ft 452 kts 209°
2026-05-04 09:09 6.57155 -54.52216 23752 ft 452 kts 208°
2026-05-04 09:09 6.54407 -54.53759 23091 ft 451 kts 208°
2026-05-04 09:09 6.51668 -54.55295 22467 ft 449 kts 208°
2026-05-04 09:10 6.48947 -54.56821 21873 ft 446 kts 207°
2026-05-04 09:10 6.46280 -54.58317 21290 ft 443 kts 207°
2026-05-04 09:10 6.43593 -54.59824 20749 ft 440 kts 207°
2026-05-04 09:10 6.40916 -54.61325 20185 ft 438 kts 207°
2026-05-04 09:11 6.38264 -54.62813 19620 ft 436 kts 207°
2026-05-04 09:11 6.35619 -54.64296 19067 ft 434 kts 207°
2026-05-04 09:11 6.33015 -54.65756 18517 ft 433 kts 207°
2026-05-04 09:11 6.30384 -54.67231 17918 ft 432 kts 206°
2026-05-04 09:12 6.27758 -54.68702 17315 ft 430 kts 206°
2026-05-04 09:12 6.25153 -54.70162 16769 ft 428 kts 206°
2026-05-04 09:14 6.07268 -54.80181 12864 ft 414 kts 207°
2026-05-04 09:14 6.04752 -54.81590 12295 ft 412 kts 207°
2026-05-04 09:14 6.02300 -54.83028 11769 ft 410 kts 211°
2026-05-04 09:14 6.00005 -54.84717 11278 ft 408 kts 219°
2026-05-04 09:15 5.97895 -54.86612 10908 ft 401 kts 220°
2026-05-04 09:15 5.95837 -54.88472 10696 ft 391 kts 220°
2026-05-04 09:15 5.93835 -54.90267 10515 ft 380 kts 220°
2026-05-04 09:15 5.91906 -54.91991 10341 ft 370 kts 220°
2026-05-04 09:17 5.77898 -55.04439 9155 ft 299 kts 220°
2026-05-04 09:18 5.76370 -55.05796 8918 ft 295 kts 220°
2026-05-04 09:18 5.74831 -55.07161 8603 ft 294 kts 220°
2026-05-04 09:18 5.73303 -55.08516 8290 ft 293 kts 220°
2026-05-04 09:18 5.71775 -55.09872 7997 ft 291 kts 220°
2026-05-04 09:19 5.70261 -55.11215 7718 ft 290 kts 220°
2026-05-04 09:19 5.68775 -55.12533 7424 ft 288 kts 220°
2026-05-04 09:19 5.67275 -55.13864 7136 ft 287 kts 219°
2026-05-04 09:19 5.65776 -55.15194 6863 ft 285 kts 220°
2026-05-04 09:20 5.64291 -55.16512 6576 ft 284 kts 220°
2026-05-04 09:20 5.62814 -55.17822 6302 ft 283 kts 219°
2026-05-04 09:20 5.61339 -55.19131 6018 ft 281 kts 219°
2026-05-04 09:20 5.59876 -55.20428 5732 ft 280 kts 219°
2026-05-04 09:21 5.58436 -55.21706 5448 ft 279 kts 219°
2026-05-04 09:21 5.56981 -55.22996 5143 ft 278 kts 219°
2026-05-04 09:21 5.55531 -55.24283 4863 ft 277 kts 219°
2026-05-04 09:21 5.54086 -55.25564 4635 ft 273 kts 219°
2026-05-04 09:22 5.52687 -55.26806 4551 ft 263 kts 219°
2026-05-04 09:22 5.51359 -55.27985 4472 ft 253 kts 219°
2026-05-04 09:22 5.50052 -55.29146 4384 ft 242 kts 219°
2026-05-04 09:22 5.48899 -55.30290 4225 ft 232 kts 235°
2026-05-04 09:23 5.48375 -55.31784 3979 ft 226 kts 269°
2026-05-04 09:23 5.48449 -55.33341 3666 ft 223 kts 276°
2026-05-04 09:23 5.48577 -55.34874 3360 ft 221 kts 276°
2026-05-04 09:23 5.48709 -55.36395 3146 ft 216 kts 276°
2026-05-04 09:25 5.44897 -55.41490 2924 ft 206 kts 115°
2026-05-04 09:25 5.44717 -55.40184 2886 ft 178 kts 83°
2026-05-04 09:26 5.44841 -55.39006 2809 ft 161 kts 85°
2026-05-04 09:26 5.44917 -55.37916 2739 ft 157 kts 86°
2026-05-04 09:26 5.44988 -55.36796 2572 ft 166 kts 86°
2026-05-04 09:26 5.45071 -55.35639 2375 ft 165 kts 84°
2026-05-04 09:27 5.45155 -55.34508 2165 ft 160 kts 87°
2026-05-04 09:27 5.45188 -55.33395 2117 ft 159 kts 89°
2026-05-04 09:27 5.45202 -55.32275 2072 ft 161 kts 89°
2026-05-04 09:27 5.45208 -55.31526 2042 ft 162 kts 90°
2026-05-04 09:28 5.45217 -55.30017 1875 ft 165 kts 90°
2026-05-04 09:28 5.45224 -55.28902 1658 ft 152 kts 90°
2026-05-04 09:28 5.45228 -55.28226 1538 ft 139 kts 90°
2026-05-04 09:28 5.45234 -55.27302 1357 ft 127 kts 90°
2026-05-04 09:29 5.45239 -55.26400 1213 ft 131 kts 90°
2026-05-04 09:29 5.45244 -55.25470 1046 ft 135 kts 89°
2026-05-04 09:29 5.45250 -55.24520 869 ft 137 kts 90°
2026-05-04 09:29 5.45255 -55.23568 713 ft 140 kts 90°
2026-05-04 09:30 5.45261 -55.22585 535 ft 142 kts 90°
2026-05-04 09:30 5.45267 -55.21591 343 ft 142 kts 90°
2026-05-04 09:30 5.45276 -55.20599 157 ft 141 kts 90°
2026-05-04 09:30 5.45281 -55.19630 64 ft 129 kts 90°
2026-05-04 09:31 5.45287 -55.18924 58 ft 46 kts 90°
2026-05-04 09:31 5.45287 -55.18732 55 ft 14 kts 90°
2026-05-04 09:31 5.45309 -55.18642 54 ft 11 kts 52°
2026-05-04 09:31 5.45302 -55.18610 55 ft 4 kts 171°
2026-05-04 09:32 5.45289 -55.18637 54 ft 6 kts 266°
2026-05-04 09:32 5.45288 -55.18718 56 ft 21 kts 269°
2026-05-04 09:34 5.45343 -55.19726 70 ft 12 kts 353°
2026-05-04 09:34 5.45424 -55.19740 70 ft 12 kts 327°
2026-05-04 09:34 5.45446 -55.19790 65 ft 8 kts 300°
2026-05-04 09:34 5.45494 -55.19803 62 ft 6 kts 356°
2026-05-04 09:35 5.45513 -55.19803 62 ft 0 kts
2026-05-04 09:35 5.45515 -55.19794 59 ft 0 kts 88°